[[{"header":{"parameterUnit":"m.s-1","parameterCategory":1,"la1":30.2991,"la2":30.254,"lo1":-89.0895,"lo2":-89.0444,"dy":0.0017,"dx":0.0017,"nx":28,"ny":28,"refTime":"2024-07-15T09:00:00:Z","depth":0,"parameterNumber":2,"parameterNumberName":"U-component_of_WINDS"},"data":[0,0,0,0,0,0,0,0,0,0,0,0,0,0,0,0,0,0,0,0,0,0,0,0,0,0,0,0,0,0,0,0,0,0,0,0,0,0,0,0,0,0,0,0,0,0,0,0,0,0,0,0,0,0,0,0,0,0,0.3539,0.3539,0,0.3607,0.3608,0.3609,0.3625,0.3624,0.3624,0.3623,0.3697,0.3699,0.3702,0,0,0,0,0,0,0,0,0,0,0,0,0,0.3423,0.3425,0.3539,0.3539,0.354,0.3607,0.3608,0.3609,0.3625,0.3624,0.3624,0.3623,0.3696,0.3699,0.3702,0,0,0,0,0,0,0,0,0,0,0,0,0,0.3481,0.3426,0.3538,0.3556,0.3558,0.3607,0.3608,0.361,0.3625,0.3624,0.3623,0.3623,0.3695,0.3699,0.3702,0.3739,0,0,0.3713,0.3715,0,0,0,0,0,0,0,0,0.3477,0.3485,0.3553,0.3555,0.3558,0.3607,0.3595,0.3653,0.3625,0.36,0.3623,0.3622,0.3668,0.3674,0.3688,0.3743,0.3746,0.3714,0.3716,0.3717,0.3718,0,0,0,0,0,0,0,0.3473,0.3482,0.3566,0.3554,0.3557,0.3561,0.3569,0.3606,0.3637,0.3602,0.3603,0.3611,0.3669,0.3685,0.369,0.3747,0.3714,0.3717,0.3719,0.372,0.3836,0.3837,0,0,0,0,0,0,0.3466,0.3479,0.3564,0.3568,0.3515,0.3564,0.3572,0.3592,0.3637,0.3643,0.3612,0.3611,0.3679,0.3686,0.3693,0.3739,0.3717,0.3721,0.3723,0.3835,0.3836,0.3837,0,0,0,0,0,0,0.3463,0.3473,0.3561,0.3524,0.3535,0.3567,0.3588,0.3593,0.3609,0.3644,0.365,0.3622,0.3679,0.3688,0.3727,0.3742,0.3722,0.3726,0.3834,0.3835,0.3836,0.3832,0,0,0,0,0,0,0.346,0.3472,0.3486,0.3524,0.3537,0.3594,0.3589,0.3595,0.3615,0.3616,0.3655,0.3661,0.3679,0.3722,0.3731,0.3747,0.3729,0.3833,0.3834,0.3836,0.3831,0.3833,0.3835,0,0,0,0,0,0.3456,0.3483,0.3487,0.3497,0.3555,0.3595,0.3602,0.3621,0.3616,0.3631,0.3653,0.366,0.3739,0.3726,0.3736,0.3753,0.3832,0.3834,0.3836,0.383,0.3833,0.3835,0,0,0,0,0,0,0.3447,0.3488,0.3493,0.3533,0.356,0.3597,0.3616,0.3623,0.3653,0.3652,0.3676,0.3684,0.3723,0.3742,0.3727,0.3791,0.3785,0.3789,0.3777,0.378,0.3782,0.3777,0.3732,0,0,0,0,0,0.345,0.3478,0.3512,0.3544,0.3557,0.3584,0.3602,0.3614,0.3644,0.3656,0.3681,0.371,0.3742,0.3762,0.3793,0.3834,0.3843,0.3851,0.3852,0.3854,0.3857,0.388,0.3884,0.3844,0.3843,0.3843,0,0,0.3456,0.3481,0.3498,0.3543,0.3565,0.3595,0.3594,0.3625,0.3647,0.3661,0.37,0.3719,0.3753,0.3794,0.3813,0.3811,0.387,0.3856,0.3857,0.386,0.3883,0.3887,0.389,0.3845,0.3845,0.3844,0,0,0.3481,0.3503,0.3532,0.3554,0.3588,0.3606,0.3613,0.3649,0.3662,0.3701,0.3712,0.3739,0.3793,0.3816,0.3835,0.3869,0.3877,0.3879,0.3889,0.3911,0.3914,0.3917,0.393,0.3934,0.3882,0.3882,0.3882,0,0.3484,0.3528,0.3546,0.3577,0.3596,0.3609,0.3639,0.366,0.3702,0.3716,0.3713,0.378,0.3804,0.385,0.3858,0.3873,0.3883,0.3875,0.3912,0.3915,0.3919,0.3931,0.3935,0.3882,0.3882,0.3882,0.3882,0,0.353,0.356,0.358,0.3619,0.3641,0.3671,0.3695,0.3715,0.3725,0.3743,0.3783,0.3812,0.3849,0.3861,0.3872,0.3909,0.3906,0.3907,0.3902,0.3922,0.3934,0.3938,0.3882,0.3882,0.3882,0.3882,0,0,0.3553,0.3601,0.3608,0.3626,0.3664,0.3688,0.3719,0.3754,0.3771,0.38,0.3826,0.3871,0.3872,0.3894,0.3907,0.3927,0.3952,0.3926,0.3927,0.3929,0.3995,0.3994,0.3999,0.3957,0.3958,0.3959,0.3992,0,0.3583,0.3637,0.3654,0.37,0.3728,0.3741,0.3767,0.3794,0.3812,0.3839,0.3859,0.389,0.3889,0.3902,0.3922,0.3944,0.3965,0.3942,0.3983,0.3984,0.3974,0.4005,0.4004,0.4034,0.3997,0.3997,0.3998,0,0.3625,0.3654,0.3702,0.3736,0.3748,0.3772,0.3805,0.3831,0.3861,0.3873,0.3897,0.3909,0.3942,0.3934,0.398,0.3964,0.3982,0.3995,0.3997,0.4002,0.3992,0.401,0.4044,0.4049,0.4005,0.4005,0.4004,0,0.3637,0.3687,0.3722,0.3737,0.3778,0.3794,0.3812,0.3842,0.3862,0.3891,0.3905,0.3938,0.3956,0.3982,0.4003,0.3995,0.4047,0.4041,0.4058,0.4058,0.4069,0.4068,0.4106,0.408,0.408,0.408,0.408,0,0.3668,0.3697,0.3728,0.3749,0.3782,0.3802,0.3835,0.3853,0.388,0.3906,0.3919,0.3943,0.3969,0.3997,0.4014,0.405,0.4058,0.4069,0.4073,0.4068,0.4066,0.4079,0.4078,0.4081,0.4081,0.4081,0.408,0,0.3687,0.3708,0.3747,0.3782,0.3792,0.3815,0.3845,0.3867,0.3885,0.3918,0.3927,0.3956,0.3989,0.4012,0.4056,0.4067,0.4106,0.4109,0.4095,0.4097,0.4113,0.4111,0.4161,0.4168,0.4137,0.4137,0.4137,0,0.3706,0.3728,0.3765,0.3783,0.3801,0.383,0.385,0.3871,0.3891,0.3928,0.3945,0.3979,0.4008,0.4061,0.4086,0.4119,0.4124,0.4139,0.4129,0.4123,0.4124,0.4123,0.4125,0.4141,0.4141,0.4141,0.4141,0,0.3737,0.3746,0.3774,0.3806,0.3829,0.3856,0.3882,0.3896,0.3922,0.3944,0.3978,0.4,0.4044,0.4078,0.4113,0.4133,0.4142,0.4144,0.415,0.4145,0.4136,0.4141,0.4099,0.4143,0.4143,0.4143,0.4143,0.4143,0.3756,0.3776,0.3806,0.3837,0.3859,0.3883,0.3905,0.3926,0.3954,0.399,0.4001,0.4037,0.4067,0.4115,0.4135,0.4163,0.4162,0.4171,0.4173,0.4175,0.4174,0.4131,0.417,0.417,0.417,0.417,0.417,0,0.3788,0.3807,0.3835,0.3872,0.3896,0.3901,0.3931,0.3951,0.3981,0.4009,0.4036,0.4075,0.4108,0.4135,0.417,0.4187,0.4192,0.4195,0.4194,0.4199,0.4174,0.4165,0.4191,0.4191,0.4191,0.4191,0.4191,0.4191,0.3807,0.3842,0.3855,0.3901,0.3921,0.3955,0.3971,0.3994,0.4015,0.4058,0.4085,0.4102,0.413,0.4166,0.4197,0.4204,0.4216,0.4218,0.4227,0.4203,0.42,0.4198,0.419,0.4221,0.4221,0.4249,0.425,0.425]},{"header":{"parameterUnit":"m.s-1","parameterCategory":1,"la1":30.2991,"la2":30.254,"lo1":-89.0895,"lo2":-89.0444,"dy":0.0017,"dx":0.0017,"nx":28,"ny":28,"refTime":"2024-07-15T09:00:00:Z","depth":0,"parameterNumber":3,"parameterNumberName":"V-component_of_WINDS"},"data":[0,0,0,0,0,0,0,0,0,0,0,0,0,0,0,0,0,0,0,0,0,0,0,0,0,0,0,0,0,0,0,0,0,0,0,0,0,0,0,0,0,0,0,0,0,0,0,0,0,0,0,0,0,0,0,0,0,0,4.0926,4.0925,0,4.0865,4.0864,4.0864,4.0854,4.0855,4.0855,4.0856,4.0787,4.0785,4.0783,0,0,0,0,0,0,0,0,0,0,0,0,0,4.1028,4.1026,4.0926,4.0925,4.0924,4.0865,4.0864,4.0863,4.0854,4.0855,4.0856,4.0856,4.0788,4.0785,4.0782,0,0,0,0,0,0,0,0,0,0,0,0,0,4.0977,4.1025,4.0926,4.0913,4.0911,4.0865,4.0864,4.0863,4.0854,4.0855,4.0856,4.0856,4.0789,4.0785,4.0782,4.0743,0,0,4.0771,4.077,0,0,0,0,0,0,0,0,4.0979,4.0973,4.0915,4.0914,4.0911,4.0868,4.0875,4.0823,4.0854,4.0875,4.0856,4.0857,4.0813,4.0808,4.0794,4.074,4.0737,4.0771,4.0769,4.0767,4.0766,0,0,0,0,0,0,0,4.0983,4.0975,4.0902,4.0915,4.0912,4.0908,4.0901,4.0865,4.084,4.0874,4.0873,4.0866,4.0812,4.0798,4.0792,4.0736,4.0771,4.0768,4.0766,4.0764,4.0646,4.0645,0,0,0,0,0,0,4.099,4.0978,4.0903,4.09,4.0948,4.0905,4.0898,4.0881,4.084,4.0835,4.0865,4.0866,4.0803,4.0797,4.079,4.0741,4.0767,4.0764,4.0762,4.0647,4.0646,4.0645,0,0,0,0,0,0,4.0992,4.0983,4.0906,4.0939,4.0929,4.0903,4.0883,4.0879,4.0865,4.0834,4.0829,4.0856,4.0804,4.0795,4.0755,4.0739,4.0762,4.0759,4.0648,4.0647,4.0645,4.0644,0,0,0,0,0,0,4.0995,4.0984,4.0971,4.0939,4.0927,4.0874,4.0883,4.0878,4.086,4.086,4.0824,4.0819,4.0804,4.0761,4.0752,4.0734,4.0756,4.0649,4.0647,4.0646,4.0645,4.0643,4.064,0,0,0,0,0,4.0999,4.0972,4.097,4.0961,4.091,4.0873,4.0866,4.0852,4.0859,4.0844,4.0824,4.082,4.0742,4.0757,4.0746,4.0728,4.065,4.0648,4.0646,4.0647,4.0643,4.064,0,0,0,0,0,0,4.1,4.0967,4.0965,4.0927,4.0903,4.0872,4.0853,4.0849,4.082,4.0821,4.0802,4.0794,4.0755,4.0737,4.0754,4.0688,4.0697,4.0692,4.0701,4.0697,4.0695,4.0699,4.0753,0,0,0,0,0,4.0997,4.0972,4.0943,4.0912,4.0901,4.0879,4.0862,4.0853,4.0827,4.0816,4.0793,4.0766,4.0735,4.0715,4.0685,4.0643,4.0634,4.0625,4.0623,4.0621,4.0617,4.0592,4.0587,4.0637,4.0637,4.0637,0,0,4.0988,4.0967,4.0952,4.0912,4.0893,4.0865,4.087,4.0841,4.082,4.0811,4.0772,4.0755,4.0722,4.0681,4.0662,4.0665,4.0601,4.0618,4.0616,4.0613,4.0589,4.0584,4.058,4.0635,4.0636,4.0636,0,0,4.0958,4.094,4.0912,4.0893,4.0864,4.085,4.0843,4.0812,4.0801,4.0762,4.0755,4.0728,4.0676,4.0653,4.0635,4.0597,4.0591,4.0587,4.0573,4.0549,4.0545,4.0542,4.0527,4.0522,4.0583,4.0583,4.0583,0,4.095,4.091,4.0898,4.0869,4.0851,4.0844,4.0814,4.0795,4.0757,4.0744,4.0749,4.0684,4.0662,4.0615,4.0605,4.0591,4.0581,4.0591,4.0547,4.0543,4.054,4.0525,4.052,4.0583,4.0583,4.0583,4.0583,0,4.0902,4.0874,4.0855,4.082,4.08,4.0771,4.0752,4.0733,4.0726,4.071,4.067,4.0644,4.0608,4.0596,4.0588,4.0547,4.055,4.0552,4.056,4.0535,4.0521,4.0515,4.0583,4.0583,4.0583,4.0583,0,0,4.087,4.083,4.0823,4.0807,4.0775,4.0752,4.0722,4.0689,4.0672,4.0646,4.0619,4.0575,4.0576,4.0555,4.0544,4.0523,4.0493,4.0527,4.0526,4.0521,4.0445,4.0444,4.0438,4.049,4.0489,4.0488,4.0447,0,4.0836,4.0784,4.0772,4.0727,4.07,4.0693,4.0666,4.0642,4.0627,4.06,4.0582,4.0551,4.0556,4.0543,4.0522,4.0501,4.0477,4.0504,4.0462,4.0461,4.047,4.043,4.0429,4.0392,4.0442,4.0441,4.044,0,4.0789,4.0763,4.0716,4.0687,4.0675,4.0652,4.062,4.0596,4.0568,4.0558,4.0535,4.0526,4.0492,4.0503,4.0455,4.0474,4.0456,4.0443,4.0441,4.0435,4.0448,4.0422,4.038,4.0374,4.0432,4.0432,4.0433,0,4.0769,4.0723,4.0689,4.0676,4.0641,4.0624,4.0609,4.0582,4.0563,4.0534,4.0521,4.0489,4.0471,4.0445,4.0427,4.0437,4.0379,4.0389,4.0368,4.0369,4.0355,4.0356,4.0308,4.0346,4.0346,4.0346,4.0346,0,4.0731,4.0702,4.068,4.0659,4.0625,4.0611,4.0577,4.0561,4.0537,4.0511,4.0502,4.0477,4.0455,4.0427,4.0412,4.0373,4.0365,4.0355,4.0351,4.0355,4.0356,4.0342,4.0344,4.0345,4.0345,4.0345,4.0345,0,4.0704,4.0688,4.065,4.062,4.0612,4.0589,4.0562,4.054,4.0525,4.0492,4.0483,4.0458,4.0424,4.0404,4.036,4.035,4.0307,4.0305,4.0317,4.0315,4.0295,4.0297,4.0235,4.0226,4.0271,4.0271,4.027,0,4.068,4.0658,4.0627,4.061,4.0594,4.0567,4.0548,4.0532,4.0512,4.0478,4.046,4.0426,4.0398,4.0343,4.032,4.0286,4.0282,4.0263,4.0276,4.0281,4.028,4.0281,4.0278,4.026,4.0259,4.0259,4.0259,0,4.064,4.0633,4.0607,4.0578,4.0556,4.0532,4.0508,4.0494,4.0473,4.0451,4.0418,4.0396,4.0352,4.0318,4.0282,4.0263,4.0257,4.0255,4.0248,4.0251,4.0259,4.0253,4.031,4.0256,4.0256,4.0256,4.0257,4.0257,4.0612,4.0592,4.0567,4.0538,4.0519,4.0496,4.0474,4.0457,4.0429,4.0394,4.0386,4.035,4.0321,4.0273,4.0253,4.0223,4.0226,4.0216,4.0214,4.0211,4.021,4.0265,4.0217,4.0217,4.0217,4.0217,4.0217,0,4.057,4.0554,4.0528,4.0496,4.0472,4.0471,4.0444,4.0424,4.0393,4.0368,4.0341,4.0301,4.0268,4.0242,4.0207,4.0188,4.0184,4.018,4.018,4.0176,4.021,4.0219,4.0183,4.0183,4.0183,4.0183,4.0183,4.0183,4.0546,4.0511,4.0502,4.0457,4.044,4.0407,4.0391,4.037,4.0349,4.0307,4.028,4.0264,4.0238,4.0201,4.0169,4.0162,4.0149,4.0145,4.0137,4.017,4.0173,4.0177,4.0185,4.0142,4.0142,4.0105,4.0104,4.0104]}]]